Location: Unspecified
(48.5670°N, 0.0000°E)
Time: 10:37:08
(UTC+00:00)

Transit 2A - Visible Passes

Search period start: 17 October 2019 00:00
Search period end: 27 October 2019 00:00
Orbit: 600 x 959 km, 66.7° (Epoch: 16 October)

Date Brightness Start Highest point End Pass type
(mag) Time Alt. Az. Time Alt. Az. Time Alt. Az.
17 Oct 8.7 02:16:26 11° NE 02:16:26 11° NE 02:16:53 10° NE visible
17 Oct 6.6 03:56:59 21° NNW 03:59:31 43° NE 04:03:38 10° ESE visible
17 Oct 6.6 05:38:47 10° WNW 05:42:25 26° WSW 05:46:00 10° S visible
17 Oct 8.2 18:40:14 10° SE 18:40:22 10° SE 18:40:22 10° SE visible
17 Oct 8.5 20:20:44 10° SW 20:20:56 11° SW 20:20:56 11° SW visible
18 Oct 7.1 03:24:44 30° NNE 03:25:15 31° NE 03:29:08 10° ESE visible
18 Oct 6.0 05:05:18 15° NW 05:08:27 38° WSW 05:12:27 10° S visible
18 Oct 8.0 18:08:13 10° ESE 18:08:30 10° ESE 18:08:30 10° ESE visible
18 Oct 7.4 19:46:40 10° SSW 19:49:05 26° SSW 19:49:05 26° SSW visible
19 Oct 8.0 02:52:38 19° ENE 02:52:38 19° ENE 02:54:29 10° E visible
19 Oct 5.5 04:33:12 41° WNW 04:34:25 57° WSW 04:38:40 10° SSE visible
19 Oct 6.4 19:12:47 10° SSW 19:17:04 43° SSE 19:17:04 43° SSE visible
19 Oct 8.5 20:56:35 10° WSW 20:57:37 15° WSW 20:57:37 15° WSW visible
20 Oct 5.8 04:01:15 55° SSE 04:01:15 55° SSE 04:04:41 10° SSE visible
20 Oct 7.5 05:41:50 10° W 05:42:40 10° WSW 05:43:29 10° WSW visible
20 Oct 6.5 18:39:06 10° S 18:43:58 35° ESE 18:44:52 32° E visible
20 Oct 7.4 20:22:02 10° WSW 20:25:24 33° W 20:25:24 33° W visible
21 Oct 7.8 03:29:24 18° SE 03:29:24 18° SE 03:30:31 10° SE visible
21 Oct 7.3 05:09:59 15° SW 05:09:59 15° SW 05:11:29 10° SSW visible
21 Oct 7.0 18:05:40 10° SSE 18:09:59 25° ESE 18:12:28 17° ENE visible
21 Oct 6.3 19:47:37 10° SW 19:52:53 59° NW 19:53:01 59° NW visible
22 Oct 7.8 04:38:12 11° SSW 04:38:12 11° SSW 04:38:22 10° SSW visible
22 Oct 7.4 17:32:35 10° SSE 17:36:02 17° ESE 17:39:17 10° ENE visible
22 Oct 5.9 19:13:21 10° SW 19:18:44 81° NW 19:20:27 42° NNE visible
22 Oct 8.4 20:58:55 10° W 21:00:58 17° WNW 21:00:58 17° WNW visible
23 Oct 5.8 18:39:16 10° SSW 18:44:37 74° ESE 18:47:44 23° NE visible
23 Oct 7.8 20:24:03 10° W 20:28:12 24° NW 20:28:15 24° NW visible
24 Oct 6.1 18:05:20 10° SSW 18:10:32 52° ESE 18:14:54 12° NE visible
24 Oct 7.5 19:49:19 10° WSW 19:53:54 31° NW 19:55:25 26° N visible
25 Oct 6.5 17:31:36 10° S 17:36:30 37° ESE 17:40:59 10° NE visible
25 Oct 7.0 19:14:43 10° WSW 19:19:38 40° NW 19:22:29 21° NNE visible
25 Oct 8.8 21:02:00 10° NW 21:02:59 12° NW 21:02:59 12° NW visible
26 Oct 6.5 18:40:17 10° SW 18:45:26 55° NW 18:49:28 14° NNE visible
26 Oct 8.4 20:26:46 10° WNW 20:29:34 15° NNW 20:29:58 15° NNW visible
